Tracking 19846 objects as of 18-Sep-2019
HD Live streaming from Space Station
objects crossing your sky now

INTELSAT 1002

Track INTELSAT 1002 now!
INTELSAT 1002 is classified as:


NORAD ID: 28358
Int'l Code: 2004-022A
Perigee: 35,780.1 km
Apogee: 35,807.0 km
Inclination: 0.0 °
Period: 1,436.1 minutes
Semi major axis: 42164 km
RCS: 21.2048 m2 (large)
Launch date: June 16, 2004
Source: International Telecommunications Satellite Organization (ITSO)
Launch site: TYURATAM MISSILE AND SPACE COMPLEX (TTMTR)

Television, data, and other telecommunication services to Europe, Africa and the Middle East; 36 Ku-band, 70 C-band transponders.
aabbcc
Your satellite tracking list
Your tracking list is empty




NASA's NSSDC Master Catalog

Two Line Element Set (TLE):
1 28358U 04022A   19260.83966962 -.00000015 +00000-0 +00000-0 0  9998
2 28358 000.0100 189.0969 0003199 357.0630 111.6266 01.00272483055940
Source of the keplerian elements: AFSPC